Location: Arthez
(43.0833°N, 0.2500°W)
Time: 07:57:00
(UTC+00:00)

deb Kosmos-970 - Pass Details

Date: 23 August 2022
Orbit: 900 x 1112 km, 65.8° (Epoch: 04 October)

Event Time Altitude Azimuth Distance (km) Brightness Sun altitude
Rises 20:19:59 0° 327° (NNW) 3,947 ? -15.6°
Reaches altitude 10° 20:24:03 10° 349° (NNW) 2,981 ? -16.2°
Maximum altitude 20:28:08 16° 24° (NNE) 2,552 ? -16.8°
Drops below altitude 10° 20:32:10 10° 60° (ENE) 2,934 ? -17.4°
Enters shadow 20:33:51 - 71° (ENE) 3,284 ? -17.7°
